Location: Marstown
(39.5056°N, 77.0820°W)
Time: 00:52:20
(UTC-04:00)

ISS - Visible Passes

Search period start: 23 July 2017 00:00
Search period end: 02 August 2017 00:00
Orbit: 400 x 408 km, 51.6° (Epoch: 23 July)

Date Brightness Start Highest point End Pass type
(mag) Time Alt. Az. Time Alt. Az. Time Alt. Az.
23 Jul -0.4 00:28:07 10° NW 00:29:44 13° NNW 00:31:21 10° NNE visible
23 Jul -0.2 02:06:43 10° N 02:07:22 10° N 02:08:01 10° NNE visible
23 Jul -1.3 03:42:02 10° NNW 03:44:46 24° NNE 03:47:29 10° E visible
23 Jul -3.5 05:18:14 10° WNW 05:21:22 44° SW 05:24:29 10° SSE visible
23 Jul -3.9 21:57:04 10° SW 22:00:19 89° NNW 22:03:34 10° NE visible
23 Jul -0.8 23:34:57 10° WNW 23:37:10 17° NNW 23:39:23 10° NNE visible
24 Jul -0.8 02:50:02 10° NNW 02:52:16 17° NNE 02:54:29 10° ENE visible
24 Jul -3.9 04:25:51 10° NW 04:29:07 89° NNE 04:32:23 10° SE visible
24 Jul -3.5 21:04:58 10° SSW 21:08:03 43° SE 21:11:11 10° ENE visible
24 Jul -1.3 22:41:56 10° W 22:44:39 24° NNW 22:47:22 10° NNE visible
25 Jul -0.2 00:21:25 10° NNW 00:22:03 10° N 00:22:41 10° N visible
25 Jul -0.5 01:58:03 10° NNW 01:59:41 13° NNE 02:01:18 10° NE visible
25 Jul -2.8 03:33:38 10° NW 03:36:48 46° NNE 03:39:56 10° ESE visible
25 Jul -2.3 05:10:45 10° W 05:13:01 18° SW 05:15:16 10° S visible
25 Jul -2.2 21:49:08 10° WSW 21:52:12 38° NNW 21:55:16 10° NE visible
25 Jul -0.4 23:28:00 10° NW 23:29:23 12° NNW 23:30:46 10° NNE visible
26 Jul -0.3 01:06:07 10° N 01:06:57 11° N 01:06:57 11° N visible
26 Jul -3.5 20:56:35 10° WSW 20:59:49 71° NW 21:03:03 10° NE visible
26 Jul -0.7 22:34:45 10° WNW 22:36:46 15° NNW 22:38:47 10° NNE visible
27 Jul -1.1 21:41:37 10° WNW 21:44:10 21° NNW 21:46:44 10° NNE visible
27 Jul -0.3 23:21:19 10° N 23:21:37 10° N 23:21:56 10° N visible
28 Jul -1.8 20:48:42 10° W 20:51:39 31° NNW 20:54:38 10° NE visible
28 Jul -0.5 22:27:47 10° NNW 22:28:55 11° N 22:30:03 10° N visible
29 Jul -0.5 00:05:24 10° N 00:06:32 11° N 00:06:32 11° N visible
29 Jul -0.8 21:34:26 10° NW 21:36:14 14° NNW 21:38:03 10° NNE visible
29 Jul -0.5 23:13:30 10° N 23:13:51 10° N 23:14:12 10° N visible
30 Jul -0.6 23:56:38 10° NNW 23:57:34 13° N 23:57:34 13° N visible
31 Jul -0.6 21:27:27 10° NNW 21:28:21 11° N 21:29:14 10° N visible
31 Jul -0.8 23:04:35 10° NNW 23:05:59 12° NNE 23:06:49 11° NNE visible
01 Aug -0.7 22:12:35 10° N 22:13:14 10° N 22:13:53 10° NNE visible
01 Aug -0.6 23:47:53 10° NNW 23:48:42 15° NNW 23:48:42 15° NNW visible
